Location: Berlin
(42.3812°N, 71.6370°W)
Time: 23:41:31
(UTC+00:00)

Cosmos 2151 Rocket - Pass Details

Date: 15 November 2025
Orbit: 612 x 636 km, 82.5° (Epoch: 09 December)

Event Time Altitude Azimuth Distance (km) Brightness Sun altitude
Rises 10:52:45 0° 344° (NNW) 2,938 6.7 -8.6°
Reaches altitude 10° 10:55:05 10° 338° (NNW) 2,022 5.8 -8.2°
Maximum altitude 10:59:18 42° 268° (W) 906 4.0 -7.4°
Drops below altitude 10° 11:03:28 10° 198° (SSW) 1,993 6.2 -6.7°
Sets 11:05:45 0° 191° (S) 2,891 7.1 -6.3°
